Location: Bednik
(45.3500°N, 16.3833°E)
Time: 10:45:04
(UTC+00:00)

BREEZE-M DEB (TANK) - Pass Details

Date: 08 August 2020
Orbit: 320 x 16292 km, 49.4° (Epoch: 21 September)

Event Time Altitude Azimuth Distance (km) Brightness Sun altitude
Rises 20:42:09 0° 280° (W) 2,297 6.2 -21.3°
Reaches altitude 10° 20:43:31 10° 286° (WNW) 1,656 5.5 -21.5°
Maximum altitude 20:46:40 56° 7° (N) 930 3.6 -21.8°
Drops below altitude 10° 20:56:24 10° 85° (E) 4,952 6.9 -22.7°
Sets 21:04:09 0° 89° (E) 8,049 7.9 -23.4°
